{"data":{"norad_id":52650,"epoch":"2026-09-19T22:38:02.728032Z","epoch_age_seconds":114547,"freshness":"FRESH","line1":"1 52650U 22052BE  26262.94308713 -.00000114  00000+0  77730-5 0  9997","line2":"2 52650  53.1615  86.0015 0001092 101.4850 258.6275 15.34383292240755","mean_motion":15.34383292,"eccentricity":0.0001092,"inclination_deg":53.1615,"raan_deg":86.0015,"arg_perigee_deg":101.485,"mean_anomaly_deg":258.6275,"bstar":7.773e-6,"rev_number":24075,"period_min":93.848779995709,"perigee_km":462.00587517766,"apogee_km":463.4999255319,"semimajor_km":6840.8899003548,"source":"CELESTRAK","updated_at":"2026-09-20T09:00:40.099795Z"}}